Regional Weather Roundup
Issued by NWS

Home | Current Version | Previous Version | Graphics & Text | Print | Product List | Glossary Off
Versions: 1 2 3 4 5 6 7 8 9 10 11 12 13 14 15 16 17 18 19 20 21 22 23 24 25 26 27 28 29 30 31 32 33 34 35 36 37 38 39 40 41 42 43 44 45 46 47 48 49 50

000
ASUS43 KTOP 261408
RWRKS

WEATHER ROUNDUP FOR KANSAS
NATIONAL WEATHER SERVICE GOODLAND KS
900 AM CDT FRI AUG 26 2016

NOTE:  "FAIR" INDICATES FEW OR NO CLOUDS BELOW 12,000 FEET WITH NO
SIGNIFICANT WEATHER AND/OR OBSTRUCTIONS TO VISIBILITY.

KSZ001>006-013>018-027>032-041>047-261500-
NORTHWEST KANSAS

CITY           SKY/WX    TMP DP  RH WIND       PRES   REMARKS
GOODLAND       CLOUDY    60  56  86 SE10      30.17S
HAYS           CLOUDY    64  54  68 N7        30.13R
HILL CITY      CLOUDY    62  60  93 N5        30.15S
RUSSELL        CLOUDY    63  61  93 N3        30.10R
$$

KSZ061>065-074>080-084>089-261500-
SOUTHWEST KANSAS

CITY           SKY/WX    TMP DP  RH WIND       PRES   REMARKS
DODGE CITY     CLOUDY    66  64  93 CALM      30.12R
ELKHART          N/A     62  58  87 W5          N/A
GARDEN CITY    CLOUDY    62  60  93 NE8       30.12F
GREAT BEND     CLOUDY    64  55  72 N6        30.10S
LIBERAL        CLOUDY    66  61  82 SE5       30.15R
PRATT          CLOUDY    64  62  93 NW5       30.10R
$$

KSZ066>073-081>083-090>101-261500-
SOUTHEAST KANSAS

CITY           SKY/WX    TMP DP  RH WIND       PRES   REMARKS
CHANUTE        MOSUNNY   73  68  84 E7        30.11S
COFFEYVILLE    CLOUDY    72  71  97 NE5       30.11R
HUTCHINSON     MOSUNNY   67  65  93 E5        30.07R
MEDICINE LODGE   N/A     67  64  90 CALM      30.10R
NEWTON         PTSUNNY   67  65  93 E5        30.09S
PARSONS        PTSUNNY   72  68  87 CALM      30.12S
WICHITA INTL   CLOUDY    71  70  96 SE9       30.06R
WICHITA JABRA  CLOUDY    70  70 100 SE7       30.08R
WICHITA MCCONL CLOUDY    70  68  93 SE12      30.07S
WINFIELD       CLOUDY    71  68  90 E8        30.09S
$$

KSZ007>012-019>026-033>040-048>060-102>105-261500-
NORTHEAST KANSAS

CITY           SKY/WX    TMP DP  RH WIND       PRES   REMARKS
CONCORDIA      LGT RAIN  64  61  90 NE7       30.09S
EMPORIA        LGT RAIN  68  67  96 SE7       30.10R
LAWRENCE       CLOUDY    70  69  97 E9        30.11S
MANHATTAN      CLOUDY    67  65  93 E6        30.10R
MARYSVILLE     LGT RAIN  63  63 100 NE10      30.07F
OLATHE IND     PTSUNNY   71  68  90 E7        30.13R
OLATHE EXE     MOSUNNY   70  69  97 E9        30.13S
SALINA         LGT RAIN  67  65  93 E6        30.08S
TOPEKA BILLARD CLOUDY    70  68  93 E9        30.09F
TOPEKA FORBES  CLOUDY    71  68  90 SE7       30.10R
$$




USA.gov is the U.S. government's official web portal to all federal, state and local government web resources and services.